World > North America > United States > Ohio > Clarksfield

Hourly Clarksfield, OH Regional Weather

Feedback E-mail the Weather

Quick WX

Clarksfield, OH Weather Maps

°F °C°F °C
Clarksfield Weather Map
UTC Time: 8/19/2022, 07:45
Your Time:

Clarksfield, OH Regional Weather

Expires:202208190800;;297390
ASUS41 KCLE 190710
RWRCLE
OHIO REGIONAL WEATHER ROUNDUP
NATIONAL WEATHER SERVICE WILMINGTON, OH
300 AM EDT FRI AUG 19 2022

NOTE: "FAIR" INDICATES FEW OR NO CLOUDS BELOW 12,000 FEET WITH NO
SIGNIFICANT WEATHER AND/OR OBSTRUCTIONS TO VISIBILITY.


OHZ009>014-019>023-028>033-038-089-190800-
   NORTHEAST OHIO
  
CITY           SKY/WX    TMP DP  RH WIND       PRES   REMARKS
CLE-HOPKINS    FAIR      62  56  80 S5        30.00S                  
CLE-LAKEFRONT  FAIR      68  58  70 SE10      30.00R                  
CUY CO. ARPT   FAIR      58  55  90 CALM      30.04R                  
LORAIN-ELYRIA  FAIR      61  56  83 CALM      30.02S                  
ASHTABULA      FAIR      60  56  86 SE3       30.04R                  
AKRON-CANTON   FAIR      65  59  81 S3        30.04R                  
WOOSTER        FAIR      59  58  96 CALM      30.04S                  
MANSFIELD      FAIR      59  58  96 CALM      30.04S                  
YOUNGSTOWN     FAIR      56  55  97 SE3       30.04S                  
$$
 

SKY/WX - Weather  TMP - Temperature  DP - Dew Point  RH - Humidity
WIND - Wind Direction/Speed PRES - Barometric Pressure VSB - Visibility
WCI - Wind Chill Index E13G22 Wind - East Wind 13 mph/Gusts of 22 mph

Trending Headlines

Clarksfield Radar Loop



Clarksfield Quick Facts


National Two Day Weather Forecast


E-mail the Clarksfield Weather Forecast

Voice your opinion or tell us about page issues...